Location: Devore Heights
(34.2372°N, 117.4156°W)
Time: 17:05:45
(UTC+00:00)

Explorer 7 - Pass Details

Date: 22 September 2024
Orbit: 460 x 606 km, 50.3° (Epoch: 12 October)

Event Time Altitude Azimuth Distance (km) Brightness Sun altitude
Exits shadow 11:59:45 - 341° (NNW) 1,827 9.4 -20.9°
Reaches altitude 10° 12:00:40 10° 353° (N) 1,615 9.3 -20.8°
Maximum altitude 12:02:28 13° 23° (NNE) 1,423 9.4 -20.4°
Drops below altitude 10° 12:04:15 10° 53° (NE) 1,602 10.2 -20.0°
Sets 12:07:21 0° 82° (E) 2,473 11.8 -19.4°
